カタログに戻る

CZ-4 DEB

運用中PO
NORAD 26209·DEBRIS·🇨🇳 China

打ち上げ Oct 14, 1999 から Taiyuan Satellite Launch Center

Loading…

次のパス (今後24時間)

TLE

最新Source: Space-Track

元期: Sep 13, 2026, 10:35 UTC

1 26209U 99057CX  26256.44165421  .00000590  00000-0  11674-3 0  9993
2 26209  98.6555  71.3194 0028072 170.1858 219.7577 14.66158507410267

AllMySatでCZ-4 DEBをリアルタイム追跡

Download on the App Store